TimeEDT,TemperatureF,Dew PointF,Humidity,Sea Level PressureIn,VisibilityMPH,Wind Direction,Wind SpeedMPH,Gust SpeedMPH,PrecipitationIn,Events,Conditions,WindDirDegrees,DateUTC
12:53 AM,66.9,63.0,87,30.06,10.0,NW,10.4,-,N/A,,Scattered Clouds,320,2011-10-25 04:53:00
1:53 AM,68.0,61.0,78,30.05,10.0,NNW,10.4,-,N/A,,Scattered Clouds,330,2011-10-25 05:53:00
2:53 AM,70.0,60.1,71,30.03,10.0,NNW,10.4,-,N/A,,Scattered Clouds,340,2011-10-25 06:53:00
3:53 AM,68.0,60.1,76,30.02,10.0,NNW,8.1,-,N/A,,Scattered Clouds,340,2011-10-25 07:53:00
4:53 AM,66.9,61.0,81,30.02,10.0,NNW,6.9,-,N/A,,Partly Cloudy,340,2011-10-25 08:53:00
5:53 AM,66.9,61.0,81,30.03,10.0,NNW,6.9,-,N/A,,Partly Cloudy,340,2011-10-25 09:53:00
6:53 AM,66.0,61.0,84,30.04,10.0,North,5.8,-,N/A,,Partly Cloudy,350,2011-10-25 10:53:00
7:53 AM,66.0,61.0,84,30.07,10.0,NNW,5.8,-,N/A,,Mostly Cloudy,330,2011-10-25 11:53:00
8:53 AM,71.1,63.0,75,30.08,10.0,NNW,4.6,-,N/A,,Mostly Cloudy,340,2011-10-25 12:53:00
9:53 AM,77.0,62.1,60,30.10,10.0,NE,11.5,-,N/A,,Mostly Cloudy,40,2011-10-25 13:53:00
10:53 AM,79.0,63.0,58,30.10,10.0,NE,15.0,-,N/A,,Mostly Cloudy,40,2011-10-25 14:53:00
11:53 AM,81.0,62.1,52,30.11,10.0,NE,17.3,25.3,N/A,,Mostly Cloudy,50,2011-10-25 15:53:00
12:53 PM,80.1,59.0,48,30.10,10.0,NE,15.0,23.0,N/A,,Mostly Cloudy,40,2011-10-25 16:53:00
1:53 PM,82.0,60.1,47,30.08,10.0,NE,15.0,-,N/A,,Mostly Cloudy,50,2011-10-25 17:53:00
2:53 PM,82.0,60.1,47,30.06,10.0,ENE,13.8,-,N/A,,Mostly Cloudy,70,2011-10-25 18:53:00
3:53 PM,81.0,61.0,50,30.05,10.0,NE,15.0,21.9,N/A,,Scattered Clouds,40,2011-10-25 19:53:00
4:53 PM,80.1,60.1,50,30.05,10.0,NE,13.8,-,N/A,,Scattered Clouds,40,2011-10-25 20:53:00
5:53 PM,79.0,61.0,54,30.05,10.0,ENE,8.1,-,N/A,,Mostly Cloudy,60,2011-10-25 21:53:00
6:53 PM,78.1,60.1,54,30.06,10.0,ENE,10.4,-,N/A,,Scattered Clouds,70,2011-10-25 22:53:00
7:53 PM,77.0,61.0,58,30.06,10.0,ENE,8.1,-,N/A,,Scattered Clouds,60,2011-10-25 23:53:00
8:53 PM,77.0,63.0,62,30.07,10.0,ENE,11.5,-,N/A,,Scattered Clouds,70,2011-10-26 00:53:00
9:53 PM,77.0,63.0,62,30.07,10.0,East,10.4,-,N/A,,Scattered Clouds,80,2011-10-26 01:53:00
10:53 PM,75.9,63.0,64,30.08,10.0,ENE,11.5,-,N/A,,Scattered Clouds,70,2011-10-26 02:53:00
11:53 PM,75.9,62.1,62,30.06,10.0,ENE,8.1,-,N/A,,Scattered Clouds,70,2011-10-26 03:53:00